• In Uzbekistan
  • List of Countries
  • For 7 days
  • Water Temperature
  • Satellite Maps
  • Weather Map
  • Weather Widgets
  • user-avatar
    Login

    Hourly Weather Staines

    Today, 23 November, Thursday

    Time Temperature Precipitation Wind Pressure Humidity
    00:00 +14°C° 0.3 mm 12 mps 739 mmHg 73%
    01:00 +14°C° 0.9 mm 12 mps 738 mmHg 75%
    02:00 +13°C° 0.9 mm 11 mps 738 mmHg 78%
    03:00 +13°C° 0.9 mm 11 mps 738 mmHg 80%
    04:00 +13°C° 0.4 mm 10 mps 738 mmHg 81%
    05:00 +12°C° 0.4 mm 9 mps 739 mmHg 82%
    06:00 +12°C° 0.4 mm 8 mps 740 mmHg 83%
    07:00 +11°C° 0.1 mm 7 mps 741 mmHg 80%
    08:00 +10°C° 0.1 mm 7 mps 743 mmHg 76%
    09:00 +9°C° 0.1 mm 7 mps 744 mmHg 73%
    10:00 +9°C° 0 mm 8 mps 745 mmHg 68%
    11:00 +9°C° 0 mm 8 mps 747 mmHg 63%
    12:00 +8°C° 0 mm 9 mps 748 mmHg 58%
    13:00 +9°C° 0 mm 8 mps 748 mmHg 59%
    14:00 +9°C° 0 mm 7 mps 749 mmHg 60%
    15:00 +9°C° 0 mm 7 mps 750 mmHg 62%
    16:00 +8°C° 0 mm 6 mps 751 mmHg 64%
    17:00 +8°C° 0 mm 5 mps 751 mmHg 66%
    18:00 +7°C° 0 mm 4 mps 752 mmHg 69%
    19:00 +7°C° 0.2 mm 4 mps 752 mmHg 71%
    20:00 +8°C° 0.2 mm 3 mps 753 mmHg 74%
    21:00 +8°C° 0.2 mm 2 mps 753 mmHg 77%
    22:00 +8°C° 0.9 mm 2 mps 752 mmHg 79%
    23:00 +7°C° 0.9 mm 2 mps 752 mmHg 81%

    Tomorrow, 24 November, Friday

    Time Temperature Precipitation Wind Pressure Humidity
    00:00 +7°C° 0.9 mm 2 mps 752 mmHg 83%
    01:00 +6°C° 1.2 mm 2 mps 751 mmHg 81%
    02:00 +5°C° 1.2 mm 3 mps 751 mmHg 78%
    03:00 +5°C° 1.2 mm 3 mps 751 mmHg 76%
    04:00 +5°C° 0.2 mm 3 mps 752 mmHg 75%
    05:00 +5°C° 0.2 mm 3 mps 753 mmHg 74%
    06:00 +4°C° 0.2 mm 3 mps 753 mmHg 73%
    07:00 +4°C° 0 mm 3 mps 754 mmHg 74%
    08:00 +4°C° 0 mm 3 mps 755 mmHg 75%
    09:00 +4°C° 0 mm 3 mps 756 mmHg 75%
    10:00 +5°C° 0 mm 3 mps 757 mmHg 71%
    11:00 +7°C° 0 mm 3 mps 757 mmHg 66%
    12:00 +7°C° 0 mm 4 mps 758 mmHg 62%
    13:00 +7°C° 0 mm 3 mps 758 mmHg 64%
    14:00 +7°C° 0 mm 3 mps 758 mmHg 66%
    15:00 +7°C° 0 mm 2 mps 758 mmHg 67%
    16:00 +6°C° 0 mm 2 mps 758 mmHg 70%
    17:00 +6°C° 0 mm 2 mps 758 mmHg 72%
    18:00 +6°C° 0 mm 1 mps 758 mmHg 75%
    19:00 +6°C° 0.1 mm 1 mps 758 mmHg 76%
    20:00 +6°C° 0.1 mm 1 mps 758 mmHg 76%
    21:00 +6°C° 0.1 mm 1 mps 758 mmHg 77%
    22:00 +5°C° 0.3 mm 2 mps 758 mmHg 77%
    23:00 +4°C° 0.3 mm 2 mps 758 mmHg 78%

    Day after tomorrow, 25 November, Saturday

    Time Temperature Precipitation Wind Pressure Humidity
    00:00 +4°C° 0.3 mm 2 mps 758 mmHg 79%
    01:00 +4°C° 0.1 mm 2 mps 758 mmHg 78%
    02:00 +4°C° 0.1 mm 2 mps 758 mmHg 77%
    03:00 +3°C° 0.1 mm 3 mps 757 mmHg 76%
    04:00 +2°C° 0 mm 3 mps 758 mmHg 75%
    05:00 +2°C° 0 mm 3 mps 758 mmHg 74%
    06:00 0°C° 0 mm 4 mps 758 mmHg 73%
    07:00 0°C° 0 mm 4 mps 759 mmHg 72%
    08:00 +1°C° 0 mm 4 mps 760 mmHg 71%
    09:00 +1°C° 0 mm 5 mps 760 mmHg 70%
    10:00 +2°C° 0 mm 5 mps 761 mmHg 66%
    11:00 +3°C° 0 mm 6 mps 761 mmHg 62%
    12:00 +4°C° 0 mm 6 mps 761 mmHg 58%
    13:00 +4°C° 0 mm 6 mps 761 mmHg 59%
    14:00 +5°C° 0 mm 5 mps 761 mmHg 61%
    15:00 +3°C° 0 mm 5 mps 762 mmHg 62%
    16:00 +3°C° 0 mm 5 mps 762 mmHg 64%
    17:00 +3°C° 0 mm 4 mps 762 mmHg 66%
    18:00 +1°C° 0 mm 4 mps 762 mmHg 69%
    19:00 +1°C° 0 mm 4 mps 763 mmHg 70%
    20:00 +1°C° 0 mm 4 mps 763 mmHg 71%
    21:00 0°C° 0 mm 4 mps 763 mmHg 72%
    22:00 0°C° 0 mm 4 mps 763 mmHg 72%
    23:00 0°C° 0 mm 5 mps 764 mmHg 73%

    26 November, Sunday

    Time Temperature Precipitation Wind Pressure Humidity
    00:00 0°C° 0 mm 5 mps 764 mmHg 73%
    01:00 0°C° 0 mm 5 mps 764 mmHg 74%
    02:00 0°C° 0 mm 5 mps 764 mmHg 74%
    03:00 +1°C° 0 mm 5 mps 764 mmHg 75%
    04:00 +1°C° 0 mm 5 mps 764 mmHg 77%
    05:00 +1°C° 0 mm 6 mps 764 mmHg 78%
    06:00 +1°C° 0 mm 6 mps 764 mmHg 80%
    07:00 +2°C° 0 mm 6 mps 765 mmHg 80%
    08:00 +2°C° 0 mm 6 mps 765 mmHg 80%
    09:00 +3°C° 0 mm 6 mps 766 mmHg 80%
    10:00 +3°C° 0 mm 6 mps 766 mmHg 76%
    11:00 +4°C° 0 mm 6 mps 766 mmHg 72%
    12:00 +5°C° 0 mm 6 mps 767 mmHg 68%
    13:00 +5°C° 0 mm 6 mps 767 mmHg 69%
    14:00 +6°C° 0 mm 5 mps 767 mmHg 70%
    15:00 +6°C° 0 mm 4 mps 767 mmHg 72%
    16:00 +5°C° 0 mm 4 mps 767 mmHg 74%
    17:00 +4°C° 0 mm 4 mps 768 mmHg 76%
    18:00 +4°C° 0 mm 4 mps 768 mmHg 78%
    19:00 +3°C° 0 mm 4 mps 768 mmHg 79%
    20:00 +3°C° 0 mm 4 mps 768 mmHg 79%
    21:00 +3°C° 0 mm 4 mps 769 mmHg 80%
    22:00 +3°C° 0 mm 4 mps 769 mmHg 81%
    23:00 +1°C° 0 mm 4 mps 769 mmHg 82%

    27 November, Monday

    Time Temperature Precipitation Wind Pressure Humidity
    00:00 +1°C° 0 mm 4 mps 769 mmHg 82%
    01:00 +1°C° 0 mm 4 mps 769 mmHg 83%
    02:00 +1°C° 0 mm 4 mps 769 mmHg 84%
    03:00 +3°C° 0 mm 4 mps 769 mmHg 84%
    04:00 +2°C° 0.1 mm 5 mps 768 mmHg 84%
    05:00 +3°C° 0.1 mm 5 mps 767 mmHg 84%
    06:00 +3°C° 0.1 mm 6 mps 767 mmHg 83%
    07:00 +4°C° 0.4 mm 6 mps 767 mmHg 83%
    08:00 +5°C° 0.4 mm 7 mps 766 mmHg 83%
    09:00 +5°C° 0.4 mm 7 mps 766 mmHg 83%
    10:00 +6°C° 0.6 mm 7 mps 765 mmHg 84%
    11:00 +8°C° 0.6 mm 7 mps 765 mmHg 85%
    12:00 +8°C° 0.6 mm 6 mps 765 mmHg 86%
    13:00 +8°C° 0.1 mm 6 mps 764 mmHg 82%
    14:00 +8°C° 0.1 mm 6 mps 764 mmHg 79%
    15:00 +7°C° 0.1 mm 5 mps 764 mmHg 75%
    16:00 +7°C° 0 mm 5 mps 764 mmHg 77%
    17:00 +6°C° 0 mm 5 mps 764 mmHg 78%
    18:00 +5°C° 0 mm 5 mps 764 mmHg 80%
    19:00 +5°C° 0 mm 5 mps 764 mmHg 81%
    20:00 +5°C° 0 mm 5 mps 764 mmHg 81%
    21:00 +5°C° 0 mm 5 mps 764 mmHg 82%
    22:00 +5°C° 0.1 mm 5 mps 764 mmHg 83%
    23:00 +5°C° 0.1 mm 5 mps 764 mmHg 85%

    28 November, Tuesday

    Time Temperature Precipitation Wind Pressure Humidity
    00:00 +5°C° 0.1 mm 5 mps 764 mmHg 86%
    01:00 +5°C° 0 mm 5 mps 764 mmHg 87%
    02:00 +5°C° 0 mm 4 mps 763 mmHg 88%
    03:00 +4°C° 0 mm 4 mps 763 mmHg 89%
    04:00 +4°C° 0 mm 4 mps 763 mmHg 90%
    05:00 +4°C° 0 mm 4 mps 762 mmHg 91%
    06:00 +4°C° 0 mm 4 mps 762 mmHg 91%
    07:00 +4°C° 0 mm 4 mps 761 mmHg 91%
    08:00 +5°C° 0 mm 4 mps 761 mmHg 90%
    09:00 +5°C° 0 mm 4 mps 761 mmHg 90%
    10:00 +6°C° 0.3 mm 4 mps 760 mmHg 88%
    11:00 +6°C° 0.3 mm 4 mps 759 mmHg 86%
    12:00 +7°C° 0.3 mm 5 mps 758 mmHg 85%
    13:00 +7°C° 0.2 mm 5 mps 757 mmHg 83%
    14:00 +7°C° 0.2 mm 5 mps 757 mmHg 82%
    15:00 +7°C° 0.2 mm 5 mps 756 mmHg 81%
    16:00 +6°C° 0.3 mm 5 mps 755 mmHg 81%
    17:00 +6°C° 0.3 mm 5 mps 755 mmHg 82%
    18:00 +4°C° 0.3 mm 6 mps 755 mmHg 82%
    19:00 +4°C° 0 mm 6 mps 755 mmHg 81%
    20:00 +3°C° 0 mm 6 mps 756 mmHg 79%
    21:00 +2°C° 0 mm 7 mps 756 mmHg 78%
    22:00 +2°C° 0 mm 7 mps 756 mmHg 78%
    23:00 0°C° 0 mm 7 mps 756 mmHg 77%
    Show more